Regional Weather Roundup
Issued by NWS

Home | Current Version | Previous Version | Graphics & Text | Print | Product List | Glossary On
Versions: 1 2 3 4 5 6 7 8 9 10 11 12 13 14 15 16 17 18 19 20 21 22 23 24 25 26 27 28 29 30 31 32 33 34 35 36 37 38 39 40 41 42 43 44 45 46 47 48 49 50
982
ASUS44 KLIX 312210
RWRLA
LOUISIANA WEATHER ROUNDUP
NATIONAL WEATHER SERVICE NEW ORLEANS LA
500 PM CDT THU JUL 31 2014

NOTE: "FAIR" INDICATES FEW OR NO CLOUDS BELOW 12,000 FEET WITH NO
      SIGNIFICANT WEATHER AND/OR OBSTRUCTIONS TO VISIBILITY.
      SKY/WX - SKY CONDITION AND SIGNIFICANT WEATHER.
      TMP - AIR TEMPERATURE.    DP   - DEWPOINT TEMPERATURE.
      RH  - RELATIVE HUMIDITY.  PRES - PRESSURE.
      HX  - HEAT INDEX.         WCI  - WIND CHILL INDEX.

*  THESE STATIONS ARE NOT NWS OR FAA STATIONS AND ARE NOT UNDER
   NWS QUALITY CONTROL.

LAZ040-048-061>063-065-066-069-312300-
SOUTHEAST LOUISIANA

CITY           SKY/WX    TMP DP  RH WIND       PRES   REMARKS
N.O. AUDUBON     N/A     91  67  46 MISG        N/A
N.O. INTL ARPT PTSUNNY   87  64  46 N9        29.99S
N.O. LAKEFRONT MOSUNNY   88  62  41 N7        30.00S
N.O. DOWNTOWN* FAIR      88  63  42 NE5       29.99F
SLIDELL        MOSUNNY   88  60  38 VRB6      29.99S
BATON ROUGE    PTSUNNY   87  66  49 E6        29.98F
BOOTHVILLE     MOSUNNY   85  68  56 NE6       30.01F
BELLE CHASSE   PTSUNNY   87  66  49 VRB6      29.98F
BOGALUSA*      FAIR      85  62  45 N3        30.02S
GALLIANO*      NOT AVBL
NEW ROADS*     FAIR      84  68  58 NE5       29.99S
GONZALES*      FAIR      88  71  57 N3        29.98F
HAMMOND*       PTSUNNY   88  59  37 N5        30.01F
HOUMA*         MOSUNNY   88  66  48 SE7       30.00S
PORT FOURCHON* CLEAR     84  66  54 SE8       30.01S

$$

LAZ041-044-053-054-312300-
SOUTHWEST LOUISIANA

CITY           SKY/WX    TMP DP  RH WIND       PRES   REMARKS
LAKE CHARLES   CLOUDY    88  74  63 SE8       29.95F HX  96
LAFAYETTE      PTSUNNY   88  69  53 CALM      29.98F
PATTERSON      MOSUNNY   86  72  62 SE3       30.03S
SALT POINT       N/A     90  73  57 SW3       29.98F HX  98
NEW IBERIA     MOSUNNY   90  70  51 NE8       29.98F HX  95
CHENAULT AIRPK MOSUNNY   88  72  58 E9        29.96F

$$

LAZ027-028-312300-
CENTRAL LOUISIANA

CITY           SKY/WX    TMP DP  RH WIND       PRES   REMARKS
FORT POLK      CLOUDY    81  72  74 E7        29.97F
ALEXANDRIA INT CLOUDY    83  71  67 E9        29.97F
ALEXANDRIA     CLOUDY    81  71  71 E5        30.00S

$$

LAZ001-002-312300-
NORTHWEST LOUISIANA

CITY           SKY/WX    TMP DP  RH WIND       PRES   REMARKS
SHREVEPORT     LGT RAIN  74  71  91 E8        29.97F FOG
BARKSDALE AFB  LGT RAIN  73  71  94 SE6       29.98F
DTN SHREVEPORT LGT RAIN  73  70  90 SE5       29.98S

$$

LAZ014-016-312300-
NORTHEAST LOUISIANA

CITY           SKY/WX    TMP DP  RH WIND       PRES   REMARKS
MONROE         CLOUDY    79  66  64 E6        30.03F
TALLULAH       CLOUDY    81  65  58 NE5       30.03F

$$




USA.gov is the U.S. government's official web portal to all federal, state and local government web resources and services.